Weather History for Lancaster, OH

Change the Weather History Date:

Monday, November 14, 2011

  Actual Average Record
Temperature  
Mean Temperature 65 °F -  
Max Temperature 73 °F 50 °F 73 °F (2011)
Min Temperature 57 °F 31 °F 12 °F (1986)
Growing Degree Days 15 (Base 50)    
Moisture  
Dew Point 56 °F    
Average Humidity 74    
Maximum Humidity 100    
Minimum Humidity 56    
Precipitation  
Precipitation 0.85 in - - ()
Sea Level Pressure  
Sea Level Pressure 29.74 in    
Wind  
Wind Speed 17 mph (SW)    
Max Wind Speed 30 mph    
Max Gust Speed 51 mph    
Visibility 8 miles    
Events Rain , Thunderstorm    
Averages and records for this station are not official NWS values.
T = Trace of Precipitation, MM = Missing Value Source: NWS Daily Summary

Daily Weather History Graph

Daily Weather History Graph

Search for Another Location

Airport:

Trip Planner

Search our weather history database for the weather conditions in past years. The results will help you decide how hot, cold, wet, or windy it might be!

Date:

Astronomy

Nov. 14, 2011 Rise Set
Actual Time 7:13 AM EST 5:15 PM EST
Civil Twilight 6:44 AM EST 5:44 PM EST
Nautical Twilight 6:12 AM EST 6:17 PM EST
Astronomical Twilight 5:40 AM EST 6:49 PM EST
Moon 8:21 PM EST (11/14) 10:31 AM EST (11/14)
Length of Visible Light 10h 59m
Length of Day
10h 02m
Waning Gibbous, 87% of the Moon is Illuminated
Nov 14
Waning Gibbous
Nov 18
Last Quarter
Nov 25
New
Dec 2
First Quarter
Dec 10
Full

Hourly Weather History & Observations

Time (EST) Temp. Dew Point Humidity Pressure Visibility Wind Dir Wind Speed Gust Speed Precip Events Conditions
12:53 AM 66.0 °F 50.0 °F 56% 29.78 in 10.0 mi SW 18.4 mph 28.8 mph N/A   Mostly Cloudy
1:53 AM 64.9 °F 50.0 °F 58% 29.78 in 10.0 mi SSW 16.1 mph 26.5 mph N/A   Partly Cloudy
2:53 AM 66.0 °F 51.1 °F 59% 29.77 in 10.0 mi SSW 18.4 mph 28.8 mph N/A   Mostly Cloudy
3:53 AM 64.9 °F 51.1 °F 61% 29.78 in 10.0 mi WSW 11.5 mph 20.7 mph N/A   Overcast
4:53 AM 57.9 °F 53.1 °F 84% 29.78 in 10.0 mi South 4.6 mph - N/A   Overcast
5:53 AM 60.1 °F 55.0 °F 83% 29.80 in 10.0 mi SW 6.9 mph - 0.03 in   Overcast
7:53 AM 64.0 °F 55.0 °F 73% 29.78 in 10.0 mi SSW 15.0 mph 25.3 mph N/A   Overcast
8:53 AM 64.9 °F 55.9 °F 73% 29.78 in 10.0 mi SSW 13.8 mph 24.2 mph N/A   Overcast
9:53 AM 66.9 °F 55.9 °F 68% 29.78 in 10.0 mi SW 18.4 mph 27.6 mph N/A   Mostly Cloudy
10:53 AM 68.0 °F 57.0 °F 68% 29.78 in 10.0 mi SSW 17.3 mph 25.3 mph N/A   Overcast
11:53 AM 68.0 °F 57.0 °F 68% 29.75 in 10.0 mi SSW 11.5 mph 21.9 mph N/A   Overcast
12:53 PM 71.1 °F 57.0 °F 61% 29.73 in 10.0 mi SSW 21.9 mph 34.5 mph N/A   Mostly Cloudy
1:53 PM 73.0 °F 57.0 °F 57% 29.69 in 10.0 mi SW 26.5 mph 42.6 mph N/A   Scattered Clouds
2:53 PM 72.0 °F 57.0 °F 59% 29.67 in 10.0 mi SSW 20.7 mph 28.8 mph N/A   Scattered Clouds
3:53 PM 71.1 °F 57.0 °F 61% 29.68 in 10.0 mi SSW 20.7 mph 33.4 mph N/A   Overcast
4:53 PM 71.1 °F 57.0 °F 61% 29.68 in 10.0 mi SW 23.0 mph 33.4 mph N/A   Overcast
5:53 PM 70.0 °F 57.0 °F 63% 29.64 in 10.0 mi SSW 18.4 mph 36.8 mph N/A   Mostly Cloudy
6:53 PM 70.0 °F 57.0 °F 63% 29.65 in 10.0 mi SSW 18.4 mph 28.8 mph N/A   Clear
7:53 PM 70.0 °F 57.0 °F 63% 29.68 in 10.0 mi SW 16.1 mph 26.5 mph N/A   Mostly Cloudy
8:53 PM 70.0 °F 57.0 °F 63% 29.68 in 10.0 mi SW 19.6 mph 25.3 mph 0.00 in Rain Light Rain
9:03 PM 68.0 °F 57.2 °F 68% 29.71 in 8.0 mi SW 18.4 mph 27.6 mph 0.02 in Rain , Thunderstorm Thunderstorms and Rain
9:16 PM 62.6 °F 57.2 °F 82% 29.76 in 2.0 mi West 25.3 mph 41.4 mph 0.15 in Rain , Thunderstorm Rain
9:23 PM 59.0 °F 57.2 °F 94% 29.77 in 1.0 mi WSW 29.9 mph 50.6 mph 0.29 in Rain , Thunderstorm Heavy Rain
9:29 PM 59.0 °F 57.2 °F 94% 29.77 in 1.2 mi WSW 21.9 mph 42.6 mph 0.38 in Rain , Thunderstorm Heavy Rain
9:35 PM 59.0 °F 57.2 °F 94% 29.76 in 2.0 mi West 21.9 mph 33.4 mph 0.41 in Rain , Thunderstorm Rain
9:38 PM 59.0 °F 55.4 °F 88% 29.76 in 3.0 mi West 18.4 mph 33.4 mph 0.42 in Rain , Thunderstorm Rain
9:49 PM 59.0 °F 55.4 °F 88% 29.77 in 4.0 mi WSW 13.8 mph - 0.47 in Rain , Thunderstorm Heavy Rain
9:53 PM 59.0 °F 55.9 °F 90% 29.76 in 4.0 mi WSW 15.0 mph 21.9 mph 0.48 in Rain , Thunderstorm Heavy Rain
10:10 PM 57.2 °F 55.4 °F 94% 29.76 in 3.0 mi SW 9.2 mph 18.4 mph 0.08 in Rain Heavy Rain
10:53 PM 57.9 °F 55.9 °F 93% 29.75 in 5.0 mi WSW 10.4 mph - 0.23 in Rain Rain
11:25 PM 57.2 °F 57.2 °F 100% 29.77 in 6.0 mi SW 9.2 mph - 0.07 in Rain Light Rain
11:53 PM 57.9 °F 57.0 °F 97% 29.78 in 5.0 mi SW 8.1 mph - 0.11 in Rain Light Rain